Flag for Portugal Weather past 2 weeks in Viseu, Portugal

Now
56 °F

Cool.


Feels Like: 56 °F
Forecast: 55 / 69 °F
Wind: 3 mph from Northwest

Location: Viseu

Current Time: Sep 22, 2014 at 7:21:47 AM

Latest Report: Sep 22, 2014 at 6:00 AM


Visibility: N/A

Pressure: 29.97 "Hg

Humidity: 100%

Dew point: 56 °F

Location of ViseuLocation

Historic Weather in Viseu — Graph

°F

Viseu temperature yesterday

Maximum temperature yesterday: 75 °F (at 2:00 PM)
Minimum temperature yesterday: 57 °F (at 9:00 PM)
Average temperature yesterday: 64 °F

Past Weeks' High & Low Weather Summary

 TemperatureHumidityPressure
High81 °F (Sep 9, 3:00 PM)100% (Sep 7, 8:00 AM)30.08 "Hg (Sep 7, 8:00 AM)
Low54 °F (Sep 20, 7:00 AM)42% (Sep 13, 3:00 PM)29.59 "Hg (Sep 16, 5:00 PM)
Average63 °F84%29.90 "Hg
* Reported Sep 7 5:00 AM — Sep 22 5:00 AM, Viseu, Weather by CustomWeather, © 2014

Note: Actual official high and low records may vary slightly from our data, if they occured in-between our weather recording intervals... More about our weather records

Advertising

Viseu weather history for previous 24 hours

 ConditionsComfort  
Time TempWeatherWind HumidityBarometerVisibility
5:00 AM
Sep 22
56 °FCool.2 mph100%29.98 "HgN/A
4:00 AM56 °FCool.3 mph99%29.98 "HgN/A
3:00 AM56 °FCool.3 mph100%29.99 "HgN/A
2:00 AM56 °FCool.1 mphN/A30.01 "HgN/A
1:00 AM56 °FCool.5 mph95%30.03 "HgN/A
12:00 AM56 °FCool.2 mph97%30.04 "HgN/A
11:00 PM
Sep 21
57 °FCool.5 mph95%30.06 "HgN/A
10:00 PM57 °FCool.6 mph91%30.03 "HgN/A
9:00 PM57 °FCool.2 mph92%30.01 "HgN/A
8:00 PM58 °FCool.6 mph86%29.98 "HgN/A
7:00 PM60 °FCool.6 mph96%30.02 "HgN/A
6:00 PM64 °FMild.1 mph83%30.02 "HgN/A
5:00 PM67 °FMild.5 mph70%29.97 "HgN/A
4:00 PM72 °FMild.5 mph61%29.94 "HgN/A
3:00 PM72 °FMild.1 mph48%29.96 "HgN/A
2:00 PM75 °FMild.5 mph49%29.97 "HgN/A
1:00 PM74 °FMild.5 mph50%29.99 "HgN/A
12:00 PM74 °FMild.6 mph52%30.01 "HgN/A
11:00 AM72 °FMild.6 mph54%30.02 "HgN/A
10:00 AM69 °FMild.5 mph62%30.03 "HgN/A
9:00 AM64 °FMild.8 mph68%30.04 "HgN/A
8:00 AM62 °FCool.8 mph70%30.04 "HgN/A
7:00 AM61 °FCool.7 mphN/A30.03 "HgN/A
Weather by CustomWeather, © 2014

See weather overviewHow to use our weather pages